Tracking 28514 objects as of 24-Feb-2024
HD Live streaming from Space Station
objects crossing your sky now

STARLINK-2188

Track STARLINK-2188 now!
10-day predictions
STARLINK-2188 is classified as:


NORAD ID: 48563
Int'l Code: 2021-041L
Perigee: 553.4 km
Apogee: 555.3 km
Inclination: 53.1 °
Period: 95.6 minutes
Semi major axis: 6925 km
RCS: Unknown
Launch date: May 15, 2021
Source: United States (US)
Launch site: AIR FORCE EASTERN TEST RANGE (AFETR)
Your satellite tracking list
Your tracking list is empty




NASA's NSSDC Master Catalog

Two Line Element Set (TLE):
1 48563U 21041L   24054.49234957  .00000415  00000-0  46742-4 0  9999
2 48563  53.0532 236.9342 0001385  94.8833 265.2314 15.06396975152885
Source of the keplerian elements: AFSPC